User: anonymous   Login
Location: Vale
(35.4830°N, 81.3830°W)
Time: 22:05:22
(UTC-04:00)
Language:

SAR-Lupe-1 - Orbit

View from above orbital plane
View from above orbital plane
View from above satellite
View from above satellite

Ground track
Ground track

The orbit data is extracted from the following two-line orbital elements,

1 29658U 06060A   16028.21379617 0.00002000  00000-0  74088-4 0    01
2 29658  98.1718  25.7249 0003000  54.8266 305.1733 15.27672785    01
Epoch (UTC): 28 January 2016 05:07:51
Eccentricity: 0.0003000
inclination: 98.1718°
perigee height: 481 km
apogee height: 485 km
right ascension of ascending node: 25.7249°
argument of perigee: 54.8266°
revolutions per day: 15.27672785
mean anomaly at epoch: 305.1733°
orbit number at epoch: 0

The dashed part of the orbit path shows where the satellite is in the earth's shadow,  

DLR